Lihue, HI

5:42 PM HST on January 16, 2018 (GMT -1000)
Lihue

Weather History for PHLI - June, 2013

Change the Weather History Date:

Monday, June 17, 2013

  Actual Average Record
Temperature  
Mean Temperature 78 °F 78 °F  
Max Temperature 83 °F 83 °F 87 °F (1982)
Min Temperature 73 °F 73 °F 67 °F (1958)
Degree Days  
Heating Degree Days 0 0  
Month to date heating degree days 0 0  
Since 1 June heating degree days 0 0  
Since 1 July heating degree days 0 0  
Cooling Degree Days 13 13  
Month to date cooling degree days 231 217  
Year to date cooling degree days 1313 1456  
Since 1 June cooling degree days 231 217  
Growing Degree Days 28 (Base 50)    
Moisture  
Dew Point 68 °F    
Average Humidity 74    
Maximum Humidity 84    
Minimum Humidity 63    
Precipitation  
Precipitation 0.02 in 0.05 in 0.38 in (1994)
Month to date precipitation 0.14 0.88  
Year to date precipitation 14.94 16.72  
Snow  
Snow 0.00 in - - ()
Month to date snowfall 0.0  
Since 1 June snowfall 0.0  
Since 1 July snowfall 0.0  
Snow Depth 0.00 in    
Sea Level Pressure  
Sea Level Pressure 30.08 in    
Wind  
Wind Speed 16 mph (ENE)    
Max Wind Speed 22 mph    
Max Gust Speed 26 mph    
Visibility 10 miles    
Events      
T = Trace of Precipitation, MM = Missing Value Source: NWS Daily Summary

Daily Weather History Graph

Daily Weather History Graph

Search for Another Location

Airport or City:

Trip Planner

Search our weather history database for the weather conditions in past years. The results will help you decide how hot, cold, wet, or windy it might be!

Date:

Astronomy

Jun. 17, 2013 Rise Set
Actual Time 5:54 AM HST 7:22 PM HST
Civil Twilight 5:29 AM HST 7:47 PM HST
Nautical Twilight 4:59 AM HST 8:17 PM HST
Astronomical Twilight 4:28 AM HST 8:48 PM HST
Moon 1:46 PM HST 12:59 AM HST
Length of Visible Light 14h 18m
Length of Day
13h 28m
Waxing Gibbous, 62% of the Moon is Illuminated
Jun 17
Waxing Gibbous
Jun 23
Full
Jun 29
Last Quarter
Jul 7
New
Jul 15
First Quarter

Hourly Weather History & Observations

Time (HST) Temp. Heat Index Dew Point Humidity Pressure Visibility Wind Dir Wind Speed Gust Speed Precip Events Conditions
12:53 AM 75.0 °F - 66.9 °F 76% 30.05 in 10.0 mi ENE 17.3 mph - N/A   Mostly Cloudy
1:50 AM 73.4 °F - 68.0 °F 83% 30.04 in 10.0 mi ENE 15.0 mph - 0.02 in   Mostly Cloudy
1:53 AM 73.9 °F - 68.0 °F 82% 30.03 in 10.0 mi ENE 16.1 mph - 0.02 in   Mostly Cloudy
2:53 AM 73.9 °F - 68.0 °F 82% 30.02 in 10.0 mi ENE 18.4 mph 23.0 mph N/A   Mostly Cloudy
3:53 AM 73.9 °F - 68.0 °F 82% 30.03 in 10.0 mi ENE 13.8 mph - N/A   Scattered Clouds
4:53 AM 75.0 °F - 66.9 °F 76% 30.03 in 10.0 mi East 15.0 mph - N/A   Mostly Cloudy
5:01 AM 75.2 °F - 68.0 °F 78% 30.04 in 10.0 mi ENE 13.8 mph - N/A   Mostly Cloudy
5:14 AM 75.2 °F - 68.0 °F 78% 30.05 in 10.0 mi East 16.1 mph - N/A   Mostly Cloudy
5:53 AM 75.0 °F - 66.9 °F 76% 30.05 in 10.0 mi East 13.8 mph - N/A   Scattered Clouds
6:53 AM 75.0 °F - 68.0 °F 79% 30.07 in 10.0 mi ENE 16.1 mph - N/A   Partly Cloudy
7:53 AM 77.0 °F - 68.0 °F 74% 30.08 in 10.0 mi East 15.0 mph - N/A   Mostly Cloudy
8:53 AM 80.1 °F 82.9 °F 69.1 °F 69% 30.08 in 10.0 mi ENE 16.1 mph - N/A   Mostly Cloudy
9:01 AM 80.6 °F 83.9 °F 69.8 °F 70% 30.09 in 10.0 mi East 11.5 mph - N/A   Scattered Clouds
9:11 AM 80.6 °F 83.2 °F 68.0 °F 65% 30.09 in 10.0 mi East 15.0 mph - N/A   Mostly Cloudy
9:32 AM 80.6 °F 83.9 °F 69.8 °F 70% 30.10 in 10.0 mi ENE 15.0 mph - N/A   Mostly Cloudy
9:53 AM 82.0 °F 84.9 °F 68.0 °F 62% 30.09 in 10.0 mi East 16.1 mph - N/A   Mostly Cloudy
10:53 AM 81.0 °F 83.8 °F 68.0 °F 65% 30.09 in 10.0 mi East 17.3 mph 20.7 mph N/A   Mostly Cloudy
11:53 AM 82.0 °F 84.9 °F 68.0 °F 62% 30.09 in 10.0 mi East 16.1 mph - N/A   Overcast
12:53 PM 80.1 °F 82.7 °F 68.0 °F 67% 30.08 in 10.0 mi East 15.0 mph - N/A   Overcast
1:53 PM 80.1 °F 82.7 °F 68.0 °F 67% 30.07 in 10.0 mi ENE 15.0 mph - N/A   Overcast
2:28 PM 78.8 °F - 69.8 °F 74% 30.07 in 10.0 mi ENE 13.8 mph - N/A   Overcast
2:39 PM 80.6 °F 83.2 °F 68.0 °F 65% 30.07 in 10.0 mi ENE 12.7 mph - N/A   Overcast
2:53 PM 79.0 °F - 68.0 °F 69% 30.06 in 10.0 mi ENE 12.7 mph - N/A   Mostly Cloudy
3:13 PM 78.8 °F - 68.0 °F 69% 30.07 in 10.0 mi NE 16.1 mph - N/A   Overcast
3:53 PM 80.1 °F 82.9 °F 69.1 °F 69% 30.06 in 10.0 mi NE 13.8 mph - N/A   Mostly Cloudy
4:28 PM 80.6 °F 83.2 °F 68.0 °F 65% 30.07 in 10.0 mi ENE 16.1 mph - N/A   Mostly Cloudy
4:53 PM 80.1 °F 82.9 °F 69.1 °F 69% 30.06 in 10.0 mi NE 16.1 mph - N/A   Scattered Clouds
5:19 PM 78.8 °F - 68.0 °F 69% 30.07 in 10.0 mi ENE 15.0 mph - N/A   Mostly Cloudy
5:53 PM 77.0 °F - 68.0 °F 74% 30.07 in 10.0 mi NE 13.8 mph - N/A   Mostly Cloudy
6:09 PM 77.0 °F - 68.0 °F 74% 30.08 in 10.0 mi ENE 15.0 mph - N/A   Scattered Clouds
6:45 PM 75.2 °F - 68.0 °F 78% 30.09 in 10.0 mi ENE 16.1 mph - N/A   Mostly Cloudy
6:53 PM 75.9 °F - 68.0 °F 76% 30.08 in 10.0 mi ENE 16.1 mph - N/A   Scattered Clouds
7:53 PM 75.9 °F - 68.0 °F 76% 30.10 in 10.0 mi NE 18.4 mph - N/A   Scattered Clouds
8:05 PM 75.2 °F - 69.8 °F 83% 30.11 in 10.0 mi NE 15.0 mph - N/A   Mostly Cloudy
8:53 PM 75.0 °F - 69.1 °F 82% 30.12 in 10.0 mi ENE 18.4 mph - N/A   Scattered Clouds
9:31 PM 75.2 °F - 68.0 °F 78% 30.13 in 10.0 mi ENE 17.3 mph 24.2 mph N/A   Mostly Cloudy
9:53 PM 75.0 °F - 69.1 °F 82% 30.13 in 10.0 mi NE 16.1 mph - N/A   Scattered Clouds
10:53 PM 75.9 °F - 68.0 °F 76% 30.13 in 10.0 mi ENE 15.0 mph - N/A   Overcast
11:34 PM 75.2 °F - 68.0 °F 78% 30.13 in 10.0 mi ENE 17.3 mph - N/A   Mostly Cloudy
11:42 PM 75.2 °F - 66.2 °F 73% 30.13 in 10.0 mi ENE 16.1 mph - N/A   Scattered Clouds
11:53 PM 75.0 °F - 69.1 °F 82% 30.12 in 10.0 mi NE 13.8 mph - N/A   Mostly Cloudy